Weather in Svinets

Russia / Kursk Oblast     51°26′42″N   37°01′31″E
temp.,
°C
wind,
m/s
gust,
m/s
humid.,
%
clouds,
%
prec.,
mm/h
press.,
hPa
HPBL,
m
1 august, sun
sun100:00+21ssw11580 0.0 101111
03:00+20s22620 0.0 101211
06:00+20ssw22645 0.0 101213
09:00+26s35465 0.0 1012532
12:00+30ssw45341 0.0 10122589
15:00+32s462835 0.0 10113009
18:00+29sse4738100 0.0 1010255
21:00+26sse3646100 0.0 1011111
2 august, mon
mon200:00+24sse49519 0.0 1011152
03:00+22s33595 0.0 101142
06:00+21s356010 0.0 101183
09:00+28s57415 0.0 1010477
12:00+33s672960 0.0 10092818
15:00+34ssw5826100 0.0 10073246
18:00+31s473576 0.0 1006538
21:00+21wnw151978100 0.3 1010930
3 august, tue
tue300:00+19sse2283100 2.6 100740
03:00+19ssw388695 9.2 1007327
06:00+19wsw511925 0.0 1009468
09:00+19w578694 0.0 1010582
12:00+24wnw565288 0.0 10111265
15:00+23nw6653100 0.0 10111282
18:00+24nw464942 0.0 10121808
21:00+19nw386725 0.0 1014173
4 august, wed
wed400:00+17nnw34770 0.0 101587
03:00+17nnw24753 0.0 1016124
06:00+15nw23790 0.0 101750
09:00+21wnw23535 0.0 1017595
12:00+23nw4543100 0.0 10171950
15:00+22nw3551100 0.0 1018348
18:00+22n244590 0.0 1018832
21:00+17nnw11591 0.0 101911
5 august, thu
thu500:00+16se00630 0.0 101911
03:00+15ssw116749 0.0 101911
06:00+15sse116838 0.0 101911
09:00+21se2149100 0.0 1019367
12:00+25sse223770 0.0 10181319
15:00+27se233257 0.0 10172030
18:00+27ese333743 0.0 1016583
21:00+21ese475052 0.0 1015115